Location: Aniagüita
(10.0946°N, 66.9708°W)
Time: 23:09:51
(UTC+00:00)

USA 267 - Pass Details

Date: 30 June 2022
Orbit: 1102 x 1106 km, 123.0° (Epoch: 18 July)

Event Time Altitude Azimuth Distance (km) Brightness Sun altitude
Rises 23:39:16 0° 52° (NE) 3,911 5.9 -11.2°
Reaches altitude 10° 23:41:58 10° 61° (ENE) 2,954 5.2 -11.8°
Maximum altitude 23:47:51 36° 125° (SE) 1,668 3.7 -13.1°
Drops below altitude 10° 23:53:43 10° 190° (S) 2,957 5.3 -14.4°
Sets 23:56:24 0° 198° (SSW) 3,915 6.1 -15.0°
